This is the latest recevied weather packets stored in our database for station/object KD4WXI. If no packets are shown the sender has not sent any weather packets the latest 10 day(s).
| Time | Temp. | Humidity | Pressure | Rain* | Wind** | Luminosity | Snow |
|---|---|---|---|---|---|---|---|
| 1777753171 | 16.67° C | 40% | 1012.2 hPa | 0 mm | - | 378 W/m² | - |
| 1777752866 | 16.67° C | 40% | 1012.3 hPa | 0 mm | - | 422 W/m² | - |
| 1777752564 | 16.67° C | 43% | 1012.4 hPa | 0 mm | - | 470 W/m² | - |
| 1777752259 | 16.67° C | 43% | 1012.4 hPa | 0 mm | - | 553 W/m² | - |
| 1777751957 | 16.11° C | 39% | 1012.3 hPa | 0 mm | - | 573 W/m² | - |
| 1777751654 | 16.67° C | 42% | 1012.5 hPa | 0 mm | - | 596 W/m² | - |
| 1777751350 | 16.67° C | 42% | 1012.6 hPa | 0 mm | - | 561 W/m² | - |
| 1777751047 | 16.11° C | 41% | 1012.7 hPa | 0 mm | - | 590 W/m² | - |
| 1777750743 | 16.67° C | 42% | 1012.7 hPa | 0 mm | - | 210 W/m² | - |
| 1777750440 | 16.11° C | 41% | 1012.9 hPa | 0 mm | - | 542 W/m² | - |
| 1777750135 | 16.11° C | 45% | 1013 hPa | 0 mm | - | 364 W/m² | - |
| 1777749833 | 16.67° C | 41% | 1012.8 hPa | 0 mm | - | 743 W/m² | - |
| 1777749530 | 16.11° C | 44% | 1013.2 hPa | 0 mm | - | 731 W/m² | - |
| 1777749228 | 16.11° C | 45% | 1013.1 hPa | 0 mm | - | 824 W/m² | - |
| 1777748925 | 16.11° C | 44% | 1013.4 hPa | 0 mm | - | 323 W/m² | - |
| 1777748622 | 15.56° C | 44% | 1013.4 hPa | 0 mm | - | 374 W/m² | - |
| 1777748318 | 15° C | 44% | 1013.3 hPa | 0 mm | - | 227 W/m² | - |
| 1777748014 | 15° C | 42% | 1013.3 hPa | 0 mm | - | 241 W/m² | - |
| 1777747711 | 15.56° C | 48% | 1013.2 hPa | 0 mm | - | 385 W/m² | - |
| 1777747406 | 15.56° C | 42% | 1013.5 hPa | 0 mm | - | 515 W/m² | - |
| 1777747103 | 15° C | 47% | 1013.3 hPa | 0 mm | - | 397 W/m² | - |
| 1777746799 | 14.44° C | 44% | 1013.3 hPa | 0 mm | - | 619 W/m² | - |
| 1777746494 | 14.44° C | 46% | 1013.6 hPa | 0 mm | - | 225 W/m² | - |
| 1777746190 | 14.44° C | 45% | 1013.4 hPa | 0 mm | - | 325 W/m² | - |
| 1777745887 | 14.44° C | 45% | 1013.5 hPa | 0 mm | - | 323 W/m² | - |
* Rain latest hour (hover to see other rain measurements)
** Current wind speed in m/s (hover to see current wind gust speed)